Time,TemperatureF,DewpointF,PressureIn,WindDirection,WindDirectionDegrees,WindSpeedMPH,WindSpeedGustMPH,Humidity,HourlyPrecipIn,Conditions,Clouds,dailyrainin,SolarRadiationWatts/m^2,SoftwareType,DateUTC
2013-03-24 00:00:00,24.2,22.5,29.72,South,189,3.5,3.5,93,0.00,-SN,FEW,0.00,0.0,WeatherDisplay:10.37,2013-03-24 04:00:00,
2013-03-24 00:01:00,24.2,22.5,29.72,South,190,2.3,2.3,93,0.00,-SN,FEW,0.00,0.0,WeatherDisplay:10.37,2013-03-24 04:01:00,
2013-03-24 00:06:00,24.2,22.5,29.73,SE,138,2.3,2.3,93,0.00,OVC,FEW,0.00,0.0,WeatherDisplay:10.37,2013-03-24 04:06:00,
2013-03-24 00:11:00,24.2,22.5,29.72,SSE,161,3.5,3.5,93,0.00,OVC,FEW,0.00,0.0,WeatherDisplay:10.37,2013-03-24 04:11:00,
2013-03-24 00:16:00,24.2,22.5,29.72,SSW,198,6.0,6.0,93,0.00,OVC,FEW,0.00,0.0,WeatherDisplay:10.37,2013-03-24 04:16:00,
2013-03-24 00:21:00,24.2,22.5,29.72,NNW,344,5.0,5.0,93,0.00,OVC,FEW,0.00,0.0,WeatherDisplay:10.37,2013-03-24 04:21:00,
2013-03-24 00:26:00,24.2,22.2,29.72,SSW,200,1.2,1.2,92,0.00,OVC,FEW,0.00,0.0,WeatherDisplay:10.37,2013-03-24 04:26:00,
2013-03-24 00:31:00,24.2,22.2,29.72,SE,132,2.3,2.3,92,0.00,OVC,FEW,0.00,0.0,WeatherDisplay:10.37,2013-03-24 04:31:00,
2013-03-24 00:37:00,24.2,22.5,29.73,NW,315,3.0,3.0,93,0.00,OVC,FEW,0.00,0.0,WeatherDisplay:10.37,2013-03-24 04:37:00,
2013-03-24 00:42:00,24.2,22.2,29.72,NNW,327,0.0,0.0,92,0.00,OVC,FEW,0.00,0.0,WeatherDisplay:10.37,2013-03-24 04:42:00,
2013-03-24 00:47:00,24.2,22.2,29.72,ESE,123,2.3,2.3,92,0.00,OVC,FEW,0.00,0.0,WeatherDisplay:10.37,2013-03-24 04:47:00,
2013-03-24 00:52:00,24.2,22.2,29.72,WSW,253,2.0,2.0,92,0.00,OVC,FEW,0.00,0.0,WeatherDisplay:10.37,2013-03-24 04:52:00,
2013-03-24 00:57:00,24.2,22.2,29.72,NE,34,3.5,3.5,92,0.00,OVC,FEW,0.00,0.0,WeatherDisplay:10.37,2013-03-24 04:57:00,
2013-03-24 01:02:00,24.1,22.1,29.72,SSE,156,4.0,4.0,92,0.00,OVC,FEW,0.00,0.0,WeatherDisplay:10.37,2013-03-24 05:02:00,
2013-03-24 01:07:00,24.1,22.1,29.72,West,265,6.9,6.9,92,0.00,OVC,FEW,0.00,0.0,WeatherDisplay:10.37,2013-03-24 05:07:00,
2013-03-24 01:12:00,24.1,22.1,29.72,SE,146,4.6,4.6,92,0.00,OVC,FEW,0.00,0.0,WeatherDisplay:10.37,2013-03-24 05:12:00,
2013-03-24 01:17:00,24.1,22.1,29.72,South,181,3.0,3.0,92,0.00,OVC,FEW,0.00,0.0,WeatherDisplay:10.37,2013-03-24 05:17:00,
2013-03-24 01:22:00,24.1,22.1,29.73,SSW,198,3.5,3.5,92,0.00,OVC,FEW,0.00,0.0,WeatherDisplay:10.37,2013-03-24 05:22:00,
2013-03-24 01:27:00,24.1,22.1,29.73,SW,221,2.3,2.3,92,0.00,OVC,FEW,0.00,0.0,WeatherDisplay:10.37,2013-03-24 05:27:00,
2013-03-24 01:32:00,24.1,22.1,29.73,SW,221,1.0,1.0,92,0.00,OVC,FEW,0.00,0.0,WeatherDisplay:10.37,2013-03-24 05:32:00,
2013-03-24 01:37:00,24.1,22.1,29.73,West,279,3.5,3.5,92,0.00,OVC,FEW,0.00,0.0,WeatherDisplay:10.37,2013-03-24 05:37:00,
2013-03-24 01:42:00,24.1,22.1,29.73,West,265,2.3,0.0,92,0.00,OVC,FEW,0.00,0.0,WeatherDisplay:10.37,2013-03-24 05:42:00,
2013-03-24 01:47:00,24.1,22.1,29.73,WSW,257,1.2,1.2,92,0.00,OVC,FEW,0.00,0.0,WeatherDisplay:10.37,2013-03-24 05:47:00,
2013-03-24 01:52:00,24.1,22.1,29.73,SE,144,3.5,3.5,92,0.00,OVC,FEW,0.00,0.0,WeatherDisplay:10.37,2013-03-24 05:52:00,
2013-03-24 01:57:00,24.1,22.1,29.74,WNW,288,3.5,3.5,92,0.00,OVC,FEW,0.00,0.0,WeatherDisplay:10.37,2013-03-24 05:57:00,
2013-03-24 02:02:00,24.1,22.1,29.73,South,178,2.3,0.0,92,0.00,OVC,FEW,0.00,0.0,WeatherDisplay:10.37,2013-03-24 06:02:00,
2013-03-24 02:07:00,24.1,22.1,29.73,SSW,192,1.2,1.2,92,0.00,OVC,FEW,0.00,0.0,WeatherDisplay:10.37,2013-03-24 06:07:00,
2013-03-24 02:12:00,24.1,22.1,29.74,WSW,247,4.6,4.6,92,0.00,OVC,FEW,0.00,0.0,WeatherDisplay:10.37,2013-03-24 06:12:00,
2013-03-24 02:17:00,24.1,22.1,29.74,West,279,3.5,3.5,92,0.00,OVC,FEW,0.00,0.0,WeatherDisplay:10.37,2013-03-24 06:17:00,
2013-03-24 02:23:00,24.1,22.1,29.74,WNW,290,4.0,4.0,92,0.00,OVC,FEW,0.00,0.0,WeatherDisplay:10.37,2013-03-24 06:23:00,
2013-03-24 02:28:00,24.1,22.4,29.73,ENE,73,2.3,2.3,93,0.00,OVC,FEW,0.00,0.0,WeatherDisplay:10.37,2013-03-24 06:28:00,
2013-03-24 02:33:00,24.1,22.4,29.73,SSW,209,5.0,5.0,93,0.00,OVC,FEW,0.00,0.0,WeatherDisplay:10.37,2013-03-24 06:33:00,
2013-03-24 02:38:00,24.0,22.3,29.73,NE,51,2.0,2.0,93,0.00,OVC,FEW,0.00,0.0,WeatherDisplay:10.37,2013-03-24 06:38:00,
2013-03-24 02:43:00,24.0,22.3,29.73,SSW,208,2.3,2.3,93,0.00,OVC,FEW,0.00,0.0,WeatherDisplay:10.37,2013-03-24 06:43:00,
2013-03-24 02:48:00,24.0,22.3,29.73,East,82,3.0,3.0,93,0.00,OVC,FEW,0.00,0.0,WeatherDisplay:10.37,2013-03-24 06:48:00,
2013-03-24 02:53:00,24.0,22.3,29.73,SE,134,2.3,2.3,93,0.00,OVC,FEW,0.00,0.0,WeatherDisplay:10.37,2013-03-24 06:53:00,
2013-03-24 02:58:00,24.0,22.3,29.73,South,183,4.0,4.0,93,0.00,OVC,FEW,0.00,0.0,WeatherDisplay:10.37,2013-03-24 06:58:00,
2013-03-24 03:03:00,24.0,22.5,29.74,WSW,253,5.0,5.0,94,0.00,OVC,FEW,0.00,0.0,WeatherDisplay:10.37,2013-03-24 07:03:00,
2013-03-24 03:08:00,24.0,22.5,29.74,South,173,4.0,4.0,94,0.00,OVC,FEW,0.00,0.0,WeatherDisplay:10.37,2013-03-24 07:08:00,
2013-03-24 03:13:00,24.0,22.5,29.74,South,177,1.2,0.0,94,0.00,OVC,FEW,0.00,0.0,WeatherDisplay:10.37,2013-03-24 07:13:00,
2013-03-24 03:18:00,24.0,22.5,29.74,North,350,6.0,6.0,94,0.00,OVC,FEW,0.00,0.0,WeatherDisplay:10.37,2013-03-24 07:18:00,
2013-03-24 03:23:00,24.0,22.5,29.74,WSW,243,0.0,0.0,94,0.00,OVC,FEW,0.00,0.0,WeatherDisplay:10.37,2013-03-24 07:23:00,
2013-03-24 03:28:00,23.9,22.4,29.74,South,178,0.0,0.0,94,0.00,OVC,FEW,0.00,0.0,WeatherDisplay:10.37,2013-03-24 07:28:00,
2013-03-24 03:33:00,23.9,22.4,29.74,West,278,4.6,4.6,94,0.00,OVC,FEW,0.00,0.0,WeatherDisplay:10.37,2013-03-24 07:33:00,
2013-03-24 03:38:00,23.9,22.4,29.74,South,185,0.0,0.0,94,0.00,OVC,FEW,0.00,0.0,WeatherDisplay:10.37,2013-03-24 07:38:00,
2013-03-24 03:43:00,23.9,22.4,29.74,SSE,166,0.0,0.0,94,0.00,OVC,FEW,0.00,0.0,WeatherDisplay:10.37,2013-03-24 07:43:00,
2013-03-24 03:48:00,23.9,22.4,29.74,WSW,242,3.5,3.5,94,0.00,OVC,FEW,0.00,0.0,WeatherDisplay:10.37,2013-03-24 07:48:00,
2013-03-24 03:53:00,23.9,22.4,29.74,SSE,150,2.3,2.3,94,0.00,OVC,FEW,0.00,0.0,WeatherDisplay:10.37,2013-03-24 07:53:00,
2013-03-24 03:58:00,23.9,22.4,29.73,SE,130,3.5,3.5,94,0.00,OVC,FEW,0.00,0.0,WeatherDisplay:10.37,2013-03-24 07:58:00,
2013-03-24 04:03:00,23.9,22.4,29.74,SSE,161,4.0,4.0,94,0.00,OVC,FEW,0.00,0.0,WeatherDisplay:10.37,2013-03-24 08:03:00,
2013-03-24 04:08:00,23.9,22.4,29.73,ESE,123,1.2,1.2,94,0.00,OVC,FEW,0.00,0.0,WeatherDisplay:10.37,2013-03-24 08:08:00,
2013-03-24 04:13:00,23.9,22.4,29.73,West,276,4.6,4.6,94,0.00,OVC,FEW,0.00,0.0,WeatherDisplay:10.37,2013-03-24 08:13:00,
2013-03-24 04:18:00,23.9,22.4,29.73,SSW,195,3.5,3.5,94,0.00,OVC,FEW,0.00,0.0,WeatherDisplay:10.37,2013-03-24 08:18:00,
2013-03-24 04:23:00,23.9,22.4,29.73,SW,225,2.3,2.3,94,0.00,OVC,FEW,0.00,0.0,WeatherDisplay:10.37,2013-03-24 08:23:00,
2013-03-24 04:28:00,23.9,22.4,29.74,South,184,1.0,1.0,94,0.00,OVC,FEW,0.00,0.0,WeatherDisplay:10.37,2013-03-24 08:28:00,
2013-03-24 04:33:00,23.9,22.4,29.73,West,281,7.0,7.0,94,0.00,OVC,FEW,0.00,0.0,WeatherDisplay:10.37,2013-03-24 08:33:00,
2013-03-24 04:38:00,23.9,22.4,29.74,SSW,212,3.0,3.0,94,0.00,OVC,FEW,0.00,0.0,WeatherDisplay:10.37,2013-03-24 08:38:00,
2013-03-24 04:43:00,23.9,22.4,29.74,SE,146,4.0,4.0,94,0.00,OVC,FEW,0.00,0.0,WeatherDisplay:10.37,2013-03-24 08:43:00,
2013-03-24 04:48:00,23.9,22.4,29.74,SSW,192,3.5,0.0,94,0.00,OVC,FEW,0.00,0.0,WeatherDisplay:10.37,2013-03-24 08:48:00,
2013-03-24 04:53:00,23.9,22.4,29.74,South,191,1.2,1.2,94,0.00,OVC,FEW,0.00,0.0,WeatherDisplay:10.37,2013-03-24 08:53:00,
2013-03-24 04:58:00,23.9,22.4,29.74,SSW,192,0.0,0.0,94,0.00,OVC,FEW,0.00,0.0,WeatherDisplay:10.37,2013-03-24 08:58:00,
2013-03-24 05:03:00,23.9,22.4,29.74,NNW,327,3.5,0.0,94,0.00,OVC,FEW,0.00,0.0,WeatherDisplay:10.37,2013-03-24 09:03:00,
2013-03-24 05:08:00,23.9,22.4,29.74,North,360,1.2,1.2,94,0.00,OVC,FEW,0.00,0.0,WeatherDisplay:10.37,2013-03-24 09:08:00,
2013-03-24 05:13:00,23.9,22.4,29.74,ENE,59,1.2,0.0,94,0.00,OVC,FEW,0.00,0.0,WeatherDisplay:10.37,2013-03-24 09:13:00,
2013-03-24 05:18:00,23.9,22.4,29.73,SE,140,3.5,3.5,94,0.00,OVC,FEW,0.00,0.0,WeatherDisplay:10.37,2013-03-24 09:18:00,
2013-03-24 05:23:00,23.9,22.4,29.74,ESE,114,1.2,1.2,94,0.00,OVC,FEW,0.00,0.0,WeatherDisplay:10.37,2013-03-24 09:23:00,
2013-03-24 05:28:00,23.9,22.4,29.74,SW,228,6.0,6.0,94,0.00,OVC,FEW,0.00,0.0,WeatherDisplay:10.37,2013-03-24 09:28:00,
2013-03-24 05:33:00,23.9,22.4,29.74,NW,319,4.0,4.0,94,0.00,OVC,FEW,0.00,0.0,WeatherDisplay:10.37,2013-03-24 09:33:00,
2013-03-24 05:38:00,23.9,22.4,29.74,ENE,76,4.6,4.6,94,0.00,OVC,FEW,0.00,0.0,WeatherDisplay:10.37,2013-03-24 09:38:00,
2013-03-24 05:43:00,23.9,22.4,29.74,North,355,3.5,3.5,94,0.00,OVC,FEW,0.00,0.0,WeatherDisplay:10.37,2013-03-24 09:43:00,
2013-03-24 05:48:00,23.8,22.3,29.74,SSE,165,1.2,1.2,94,0.00,OVC,FEW,0.00,0.0,WeatherDisplay:10.37,2013-03-24 09:48:00,
2013-03-24 05:53:00,23.8,22.3,29.74,WNW,288,3.5,3.5,94,0.00,OVC,FEW,0.00,0.0,WeatherDisplay:10.37,2013-03-24 09:53:00,
2013-03-24 05:58:00,23.8,22.3,29.74,WSW,254,1.2,0.0,94,0.00,OVC,FEW,0.00,0.0,WeatherDisplay:10.37,2013-03-24 09:58:00,
2013-03-24 06:03:00,23.8,22.3,29.74,WSW,257,1.2,0.0,94,0.00,OVC,FEW,0.00,0.0,WeatherDisplay:10.37,2013-03-24 10:03:00,
2013-03-24 06:08:00,23.8,22.3,29.74,West,260,1.0,1.0,94,0.00,OVC,FEW,0.00,0.0,WeatherDisplay:10.37,2013-03-24 10:08:00,
2013-03-24 06:13:00,23.8,22.3,29.74,WSW,251,2.3,2.3,94,0.00,OVC,FEW,0.00,0.0,WeatherDisplay:10.37,2013-03-24 10:13:00,
2013-03-24 06:18:00,23.8,22.3,29.74,SSW,198,3.5,3.5,94,0.00,OVC,FEW,0.00,0.0,WeatherDisplay:10.37,2013-03-24 10:18:00,
2013-03-24 06:23:00,23.8,22.3,29.74,NW,309,5.0,5.0,94,0.00,OVC,FEW,0.00,0.0,WeatherDisplay:10.37,2013-03-24 10:23:00,
2013-03-24 06:28:00,23.8,22.3,29.75,NW,311,1.2,0.0,94,0.00,OVC,FEW,0.00,0.0,WeatherDisplay:10.37,2013-03-24 10:28:00,
2013-03-24 06:33:00,23.7,22.2,29.74,WSW,252,2.3,2.3,94,0.00,OVC,FEW,0.00,0.0,WeatherDisplay:10.37,2013-03-24 10:33:00,
2013-03-24 06:38:00,23.8,22.3,29.74,WSW,247,1.2,1.2,94,0.00,OVC,FEW,0.00,0.0,WeatherDisplay:10.37,2013-03-24 10:38:00,
2013-03-24 06:43:00,23.8,22.6,29.75,WSW,246,2.0,2.0,95,0.00,OVC,FEW,0.00,0.0,WeatherDisplay:10.37,2013-03-24 10:43:00,
2013-03-24 06:48:00,23.9,22.7,29.75,SW,232,2.3,2.3,95,0.00,OVC,FEW,0.00,0.0,WeatherDisplay:10.37,2013-03-24 10:48:00,
2013-03-24 06:53:00,23.9,22.7,29.75,North,355,0.0,0.0,95,0.00,OVC,FEW,0.00,0.0,WeatherDisplay:10.37,2013-03-24 10:53:00,
2013-03-24 06:58:00,23.9,22.7,29.74,NW,315,7.0,7.0,95,0.00,OVC,FEW,0.00,5.0,WeatherDisplay:10.37,2013-03-24 10:58:00,
2013-03-24 07:03:00,23.9,22.7,29.74,NW,308,5.0,5.0,95,0.00,OVC,FEW,0.00,11.0,WeatherDisplay:10.37,2013-03-24 11:03:00,
2013-03-24 07:08:00,23.9,22.7,29.74,West,265,2.0,2.0,95,0.00,OVC,FEW,0.00,11.0,WeatherDisplay:10.37,2013-03-24 11:08:00,
2013-03-24 07:13:00,23.9,22.7,29.75,ENE,60,3.5,3.5,95,0.00,OVC,FEW,0.00,12.0,WeatherDisplay:10.37,2013-03-24 11:13:00,
2013-03-24 07:18:00,24.0,22.8,29.75,NW,314,2.3,2.3,95,0.00,OVC,FEW,0.00,16.0,WeatherDisplay:10.37,2013-03-24 11:18:00,
2013-03-24 07:23:00,24.0,22.8,29.76,West,263,5.8,5.8,95,0.00,OVC,FEW,0.00,11.0,WeatherDisplay:10.37,2013-03-24 11:23:00,
2013-03-24 07:28:00,24.0,22.8,29.76,West,274,3.5,3.5,95,0.00,OVC,FEW,0.00,9.0,WeatherDisplay:10.37,2013-03-24 11:28:00,
2013-03-24 07:33:00,24.0,22.5,29.77,SW,226,1.2,0.0,94,0.00,OVC,FEW,0.00,9.0,WeatherDisplay:10.37,2013-03-24 11:33:00,
2013-03-24 07:38:00,24.0,22.5,29.77,NNW,337,0.0,0.0,94,0.00,OVC,FEW,0.00,12.0,WeatherDisplay:10.37,2013-03-24 11:38:00,
2013-03-24 07:43:00,24.0,22.5,29.77,NNW,344,1.2,1.2,94,0.00,OVC,FEW,0.00,14.0,WeatherDisplay:10.37,2013-03-24 11:43:00,
2013-03-24 07:48:00,24.0,22.5,29.77,North,5,5.0,5.0,94,0.00,OVC,FEW,0.00,19.0,WeatherDisplay:10.37,2013-03-24 11:48:00,
2013-03-24 07:53:00,24.1,22.9,29.78,North,360,2.0,2.0,95,0.00,OVC,FEW,0.00,19.0,WeatherDisplay:10.37,2013-03-24 11:53:00,
2013-03-24 07:58:00,24.2,23.0,29.78,SSW,194,5.8,0.0,95,0.00,OVC,FEW,0.00,21.0,WeatherDisplay:10.37,2013-03-24 11:58:00,
2013-03-24 08:03:00,24.3,23.1,29.79,NNE,22,2.3,0.0,95,0.00,OVC,FEW,0.00,19.0,WeatherDisplay:10.37,2013-03-24 12:03:00,
2013-03-24 08:08:00,24.4,23.2,29.78,WSW,252,1.2,1.2,95,0.00,OVC,FEW,0.00,25.0,WeatherDisplay:10.37,2013-03-24 12:08:00,
2013-03-24 08:13:00,24.5,23.3,29.78,ESE,102,1.0,1.0,95,0.00,OVC,FEW,0.00,28.0,WeatherDisplay:10.37,2013-03-24 12:13:00,
2013-03-24 08:18:00,24.6,23.4,29.79,East,99,3.5,3.5,95,0.00,OVC,FEW,0.00,37.0,WeatherDisplay:10.37,2013-03-24 12:18:00,
2013-03-24 08:23:00,24.6,23.4,29.79,West,260,6.0,6.0,95,0.00,OVC,FEW,0.00,42.0,WeatherDisplay:10.37,2013-03-24 12:23:00,
2013-03-24 08:28:00,24.7,23.5,29.79,West,280,5.8,5.8,95,0.00,OVC,FEW,0.00,35.0,WeatherDisplay:10.37,2013-03-24 12:28:00,
2013-03-24 08:33:00,24.7,23.5,29.80,West,261,3.5,3.5,95,0.00,OVC,FEW,0.00,39.0,WeatherDisplay:10.37,2013-03-24 12:33:00,
2013-03-24 08:38:00,24.7,23.5,29.80,SW,222,4.0,4.0,95,0.00,OVC,FEW,0.00,40.0,WeatherDisplay:10.37,2013-03-24 12:38:00,
2013-03-24 08:43:00,24.8,23.3,29.80,SW,221,4.0,4.0,94,0.00,OVC,FEW,0.00,44.0,WeatherDisplay:10.37,2013-03-24 12:43:00,
2013-03-24 08:48:00,24.9,23.7,29.81,WNW,294,1.2,1.2,95,0.00,OVC,FEW,0.00,42.0,WeatherDisplay:10.37,2013-03-24 12:48:00,
2013-03-24 08:53:00,25.0,23.5,29.81,NW,311,3.0,3.0,94,0.00,OVC,FEW,0.00,46.0,WeatherDisplay:10.37,2013-03-24 12:53:00,
2013-03-24 08:58:00,25.1,23.6,29.81,SW,219,3.5,3.5,94,0.00,OVC,FEW,0.00,76.0,WeatherDisplay:10.37,2013-03-24 12:58:00,
2013-03-24 09:03:00,25.2,24.0,29.81,NE,54,2.0,2.0,95,0.00,OVC,FEW,0.00,90.0,WeatherDisplay:10.37,2013-03-24 13:03:00,
2013-03-24 09:08:00,25.4,23.9,29.82,SW,229,3.5,3.5,94,0.00,OVC,FEW,0.00,104.0,WeatherDisplay:10.37,2013-03-24 13:08:00,
2013-03-24 09:13:00,25.6,24.1,29.82,SW,230,2.3,2.3,94,0.00,OVC,FEW,0.00,88.0,WeatherDisplay:10.37,2013-03-24 13:13:00,
2013-03-24 09:18:00,25.9,24.7,29.82,WNW,292,1.2,1.2,95,0.00,OVC,FEW,0.00,69.0,WeatherDisplay:10.37,2013-03-24 13:18:00,
2013-03-24 09:23:00,26.0,24.5,29.82,NNE,28,4.6,4.6,94,0.00,OVC,FEW,0.00,98.0,WeatherDisplay:10.37,2013-03-24 13:23:00,
2013-03-24 09:28:00,26.1,24.6,29.82,WSW,252,3.5,3.5,94,0.00,OVC,FEW,0.00,58.0,WeatherDisplay:10.37,2013-03-24 13:28:00,
2013-03-24 09:33:00,26.1,24.6,29.82,WSW,252,5.0,5.0,94,0.00,OVC,FEW,0.00,81.0,WeatherDisplay:10.37,2013-03-24 13:33:00,
2013-03-24 09:38:00,26.0,24.3,29.83,NW,307,4.0,4.0,93,0.00,OVC,FEW,0.00,83.0,WeatherDisplay:10.37,2013-03-24 13:38:00,
2013-03-24 09:43:00,25.9,24.2,29.83,SSW,209,3.0,3.0,93,0.00,OVC,FEW,0.00,97.0,WeatherDisplay:10.37,2013-03-24 13:43:00,
2013-03-24 09:48:00,26.1,24.6,29.83,WNW,298,1.2,0.0,94,0.00,OVC,FEW,0.00,88.0,WeatherDisplay:10.37,2013-03-24 13:48:00,
2013-03-24 09:53:00,26.2,24.7,29.83,WSW,240,2.3,0.0,94,0.00,OVC,FEW,0.00,79.0,WeatherDisplay:10.37,2013-03-24 13:53:00,
2013-03-24 09:58:00,26.3,24.6,29.82,NW,317,2.3,2.3,93,0.00,OVC,FEW,0.00,84.0,WeatherDisplay:10.37,2013-03-24 13:58:00,
2013-03-24 10:03:00,26.3,24.6,29.82,WNW,283,2.3,2.3,93,0.00,OVC,FEW,0.00,105.0,WeatherDisplay:10.37,2013-03-24 14:03:00,
2013-03-24 10:08:00,26.5,24.8,29.82,NNW,329,2.3,2.3,93,0.00,OVC,FEW,0.00,105.0,WeatherDisplay:10.37,2013-03-24 14:08:00,
2013-03-24 10:13:00,26.5,24.8,29.83,SSW,198,5.0,5.0,93,0.00,OVC,FEW,0.00,93.0,WeatherDisplay:10.37,2013-03-24 14:13:00,
2013-03-24 10:18:00,26.6,24.8,29.83,NW,309,2.3,2.3,93,0.00,OVC,FEW,0.00,134.0,WeatherDisplay:10.37,2013-03-24 14:18:00,
2013-03-24 10:23:00,26.9,24.9,29.83,SSE,155,3.5,3.5,92,0.00,OVC,FEW,0.00,149.0,WeatherDisplay:10.37,2013-03-24 14:23:00,
2013-03-24 10:28:00,27.3,25.5,29.82,WSW,249,3.5,3.5,93,0.00,OVC,FEW,0.00,162.0,WeatherDisplay:10.37,2013-03-24 14:28:00,
2013-03-24 10:33:00,27.4,25.1,29.82,ESE,114,4.0,4.0,91,0.00,OVC,FEW,0.00,142.0,WeatherDisplay:10.37,2013-03-24 14:33:00,
2013-03-24 10:38:00,27.6,25.3,29.82,SSW,194,2.3,2.3,91,0.00,OVC,FEW,0.00,139.0,WeatherDisplay:10.37,2013-03-24 14:38:00,
2013-03-24 10:43:00,27.7,25.2,29.82,SSW,202,3.5,3.5,90,0.00,OVC,FEW,0.00,125.0,WeatherDisplay:10.37,2013-03-24 14:43:00,
2013-03-24 10:48:00,27.8,25.5,29.82,East,101,1.2,1.2,91,0.00,OVC,FEW,0.00,111.0,WeatherDisplay:10.37,2013-03-24 14:48:00,
2013-03-24 10:53:00,27.8,25.2,29.82,ESE,116,3.5,3.5,90,0.00,OVC,FEW,0.00,158.0,WeatherDisplay:10.37,2013-03-24 14:53:00,
2013-03-24 10:58:00,27.8,25.2,29.82,SSW,199,2.3,2.3,90,0.00,OVC,FEW,0.00,165.0,WeatherDisplay:10.37,2013-03-24 14:58:00,
2013-03-24 11:03:00,27.9,25.3,29.82,South,175,3.5,3.5,90,0.00,OVC,FEW,0.00,135.0,WeatherDisplay:10.37,2013-03-24 15:03:00,
2013-03-24 11:08:00,27.9,25.3,29.82,SSW,202,4.0,4.0,90,0.00,OVC,FEW,0.00,162.0,WeatherDisplay:10.37,2013-03-24 15:08:00,
2013-03-24 11:13:00,28.0,25.4,29.82,WSW,246,5.0,5.0,90,0.00,OVC,FEW,0.00,200.0,WeatherDisplay:10.37,2013-03-24 15:13:00,
2013-03-24 11:19:00,28.3,25.7,29.81,WNW,293,4.0,4.0,90,0.00,OVC,FEW,0.00,250.0,WeatherDisplay:10.37,2013-03-24 15:19:00,
2013-03-24 11:24:00,28.5,25.7,29.81,West,268,4.0,4.0,89,0.00,OVC,FEW,0.00,272.0,WeatherDisplay:10.37,2013-03-24 15:24:00,
2013-03-24 11:29:00,28.7,25.6,29.81,NNW,340,2.3,2.3,88,0.00,OVC,FEW,0.00,216.0,WeatherDisplay:10.37,2013-03-24 15:29:00,
2013-03-24 11:34:00,28.8,25.7,29.81,NE,38,3.0,3.0,88,0.00,OVC,FEW,0.00,241.0,WeatherDisplay:10.37,2013-03-24 15:34:00,
2013-03-24 11:39:00,28.7,25.9,29.81,NW,309,3.5,3.5,89,0.00,OVC,FEW,0.00,230.0,WeatherDisplay:10.37,2013-03-24 15:39:00,
2013-03-24 11:44:00,28.8,26.0,29.81,WSW,257,4.0,4.0,89,0.00,OVC,FEW,0.00,281.0,WeatherDisplay:10.37,2013-03-24 15:44:00,
2013-03-24 11:49:00,28.8,25.7,29.81,WSW,248,2.3,2.3,88,0.00,OVC,FEW,0.00,302.0,WeatherDisplay:10.37,2013-03-24 15:49:00,
2013-03-24 11:54:00,28.9,25.8,29.81,NNE,32,5.0,5.0,88,0.00,OVC,FEW,0.00,220.0,WeatherDisplay:10.37,2013-03-24 15:54:00,
2013-03-24 11:59:00,29.1,26.0,29.81,West,264,1.2,1.2,88,0.00,OVC,FEW,0.00,176.0,WeatherDisplay:10.37,2013-03-24 15:59:00,
2013-03-24 12:04:00,29.2,26.1,29.81,SW,232,2.0,2.0,88,0.00,OVC,FEW,0.00,218.0,WeatherDisplay:10.37,2013-03-24 16:04:00,
2013-03-24 12:09:00,29.1,26.0,29.81,NNE,23,2.3,2.3,88,0.00,OVC,FEW,0.00,276.0,WeatherDisplay:10.37,2013-03-24 16:09:00,
2013-03-24 12:14:00,29.0,26.2,29.81,NW,305,3.5,3.5,89,0.00,OVC,FEW,0.00,269.0,WeatherDisplay:10.37,2013-03-24 16:14:00,
2013-03-24 12:19:00,28.9,25.8,29.81,WSW,238,7.0,7.0,88,0.00,OVC,FEW,0.00,276.0,WeatherDisplay:10.37,2013-03-24 16:19:00,
2013-03-24 12:24:00,28.9,25.8,29.81,WSW,254,0.0,0.0,88,0.00,OVC,FEW,0.00,329.0,WeatherDisplay:10.37,2013-03-24 16:24:00,
2013-03-24 12:29:00,29.1,26.3,29.80,WNW,300,2.3,2.3,89,0.01,RA,FEW,0.01,202.0,WeatherDisplay:10.37,2013-03-24 16:29:00,
2013-03-24 12:34:00,29.1,26.0,29.80,WNW,302,1.0,0.0,88,0.01,RA,FEW,0.01,373.0,WeatherDisplay:10.37,2013-03-24 16:34:00,
2013-03-24 12:39:00,29.4,26.3,29.80,NNW,329,5.0,5.0,88,0.01,OVC,FEW,0.01,350.0,WeatherDisplay:10.37,2013-03-24 16:39:00,
2013-03-24 12:44:00,29.8,26.7,29.80,WNW,284,5.0,5.0,88,0.01,OVC,FEW,0.01,376.0,WeatherDisplay:10.37,2013-03-24 16:44:00,
2013-03-24 12:49:00,30.1,26.7,29.80,ESE,107,5.8,5.8,87,0.01,OVC,FEW,0.01,501.0,WeatherDisplay:10.37,2013-03-24 16:49:00,
2013-03-24 12:54:00,31.1,27.4,29.80,SW,232,4.0,4.0,86,0.01,OVC,FEW,0.01,311.0,WeatherDisplay:10.37,2013-03-24 16:54:00,
2013-03-24 12:59:00,31.2,27.5,29.80,SW,221,4.0,4.0,86,0.01,OVC,FEW,0.01,294.0,WeatherDisplay:10.37,2013-03-24 16:59:00,
2013-03-24 13:04:00,30.9,26.9,29.80,NNW,335,4.0,4.0,85,0.01,OVC,FEW,0.01,327.0,WeatherDisplay:10.37,2013-03-24 17:04:00,
2013-03-24 13:09:00,30.8,26.8,29.80,ESE,107,2.3,2.3,85,0.01,OVC,FEW,0.01,278.0,WeatherDisplay:10.37,2013-03-24 17:09:00,
2013-03-24 13:14:00,30.7,26.7,29.80,South,182,4.0,4.0,85,0.01,OVC,FEW,0.01,408.0,WeatherDisplay:10.37,2013-03-24 17:14:00,
2013-03-24 13:19:00,30.7,27.0,29.80,NW,313,3.5,3.5,86,0.01,OVC,FEW,0.01,371.0,WeatherDisplay:10.37,2013-03-24 17:19:00,
2013-03-24 13:24:00,30.7,26.7,29.80,NW,317,4.0,4.0,85,0.01,OVC,FEW,0.01,520.0,WeatherDisplay:10.37,2013-03-24 17:24:00,
2013-03-24 13:29:00,31.0,27.0,29.81,NW,320,1.2,1.2,85,0.00,OVC,FEW,0.01,373.0,WeatherDisplay:10.37,2013-03-24 17:29:00,
2013-03-24 13:34:00,31.1,27.1,29.80,West,266,6.0,6.0,85,0.00,OVC,FEW,0.01,320.0,WeatherDisplay:10.37,2013-03-24 17:34:00,
2013-03-24 13:39:00,30.8,26.5,29.80,NNE,15,3.5,3.5,84,0.00,OVC,FEW,0.01,232.0,WeatherDisplay:10.37,2013-03-24 17:39:00,
2013-03-24 13:44:00,30.4,26.1,29.80,WNW,296,6.0,6.0,84,0.00,OVC,FEW,0.01,292.0,WeatherDisplay:10.37,2013-03-24 17:44:00,
2013-03-24 13:49:00,30.5,26.5,29.81,WSW,257,1.2,1.2,85,0.00,OVC,FEW,0.01,299.0,WeatherDisplay:10.37,2013-03-24 17:49:00,
2013-03-24 13:54:00,30.4,26.1,29.80,South,184,1.2,1.2,84,0.00,OVC,FEW,0.01,302.0,WeatherDisplay:10.37,2013-03-24 17:54:00,
2013-03-24 13:59:00,30.4,26.4,29.80,West,281,2.3,2.3,85,0.00,OVC,FEW,0.01,376.0,WeatherDisplay:10.37,2013-03-24 17:59:00,
2013-03-24 14:04:00,30.9,26.6,29.80,SW,229,3.5,0.0,84,0.00,OVC,FEW,0.01,466.0,WeatherDisplay:10.37,2013-03-24 18:04:00,
2013-03-24 14:09:00,31.7,27.4,29.80,SW,222,3.5,3.5,84,0.00,OVC,FEW,0.01,230.0,WeatherDisplay:10.37,2013-03-24 18:09:00,
2013-03-24 14:15:00,31.6,26.7,29.80,NNW,346,4.0,4.0,82,0.00,OVC,FEW,0.01,232.0,WeatherDisplay:10.37,2013-03-24 18:15:00,
2013-03-24 14:20:00,31.2,26.6,29.80,West,281,2.0,2.0,83,0.00,OVC,FEW,0.01,195.0,WeatherDisplay:10.37,2013-03-24 18:20:00,
2013-03-24 14:25:00,30.9,26.3,29.80,North,5,3.5,3.5,83,0.00,OVC,FEW,0.01,236.0,WeatherDisplay:10.37,2013-03-24 18:25:00,
2013-03-24 14:30:00,30.7,26.1,29.81,NE,54,1.2,1.2,83,0.00,OVC,FEW,0.01,193.0,WeatherDisplay:10.37,2013-03-24 18:30:00,
2013-03-24 14:35:00,30.6,26.1,29.81,West,274,1.2,1.2,83,0.00,OVC,FEW,0.01,197.0,WeatherDisplay:10.37,2013-03-24 18:35:00,
2013-03-24 14:40:00,30.5,26.0,29.80,WSW,255,2.0,2.0,83,0.00,OVC,FEW,0.01,200.0,WeatherDisplay:10.37,2013-03-24 18:40:00,
2013-03-24 14:45:00,30.4,25.9,29.80,WSW,254,4.0,4.0,83,0.00,OVC,FEW,0.01,149.0,WeatherDisplay:10.37,2013-03-24 18:45:00,
2013-03-24 14:50:00,30.3,25.8,29.80,NW,325,2.0,2.0,83,0.00,OVC,FEW,0.01,132.0,WeatherDisplay:10.37,2013-03-24 18:50:00,
2013-03-24 14:55:00,30.2,25.7,29.80,SW,223,1.2,1.2,83,0.00,OVC,FEW,0.01,155.0,WeatherDisplay:10.37,2013-03-24 18:55:00,
2013-03-24 15:00:00,30.0,25.8,29.81,SW,233,1.2,1.2,84,0.00,OVC,FEW,0.01,211.0,WeatherDisplay:10.37,2013-03-24 19:00:00,
2013-03-24 15:05:00,30.0,26.0,29.81,WSW,238,3.5,3.5,85,0.00,OVC,FEW,0.01,248.0,WeatherDisplay:10.37,2013-03-24 19:05:00,
2013-03-24 15:10:00,30.2,26.2,29.81,WSW,239,3.0,3.0,85,0.00,OVC,FEW,0.01,176.0,WeatherDisplay:10.37,2013-03-24 19:10:00,
2013-03-24 15:15:00,30.3,26.0,29.80,WNW,286,0.0,0.0,84,0.00,OVC,FEW,0.01,178.0,WeatherDisplay:10.37,2013-03-24 19:15:00,
2013-03-24 15:20:00,30.2,25.9,29.80,SSW,205,4.0,4.0,84,0.00,OVC,FEW,0.01,229.0,WeatherDisplay:10.37,2013-03-24 19:20:00,
2013-03-24 15:25:00,30.2,26.2,29.80,West,263,2.3,2.3,85,0.00,OVC,FEW,0.01,279.0,WeatherDisplay:10.37,2013-03-24 19:25:00,
2013-03-24 15:30:00,30.4,26.1,29.80,WNW,302,4.0,4.0,84,0.00,OVC,FEW,0.01,234.0,WeatherDisplay:10.37,2013-03-24 19:30:00,
2013-03-24 15:35:00,30.4,26.4,29.81,North,355,2.3,2.3,85,0.00,OVC,FEW,0.01,181.0,WeatherDisplay:10.37,2013-03-24 19:35:00,
2013-03-24 15:40:00,30.5,26.2,29.81,West,276,1.2,1.2,84,0.00,OVC,FEW,0.01,214.0,WeatherDisplay:10.37,2013-03-24 19:40:00,
2013-03-24 15:45:00,30.6,26.6,29.80,WNW,292,1.2,0.0,85,0.00,OVC,FEW,0.01,258.0,WeatherDisplay:10.37,2013-03-24 19:45:00,
2013-03-24 15:50:00,30.8,26.5,29.80,West,263,2.0,2.0,84,0.00,OVC,FEW,0.01,251.0,WeatherDisplay:10.37,2013-03-24 19:50:00,
2013-03-24 15:55:00,31.0,26.4,29.80,WSW,238,2.3,2.3,83,0.00,OVC,FEW,0.01,327.0,WeatherDisplay:10.37,2013-03-24 19:55:00,
2013-03-24 16:00:00,31.2,26.6,29.80,West,269,2.3,2.3,83,0.00,OVC,FEW,0.01,279.0,WeatherDisplay:10.37,2013-03-24 20:00:00,
2013-03-24 16:05:00,31.2,26.3,29.80,ENE,57,3.5,3.5,82,0.00,OVC,FEW,0.01,172.0,WeatherDisplay:10.37,2013-03-24 20:05:00,
2013-03-24 16:10:00,31.0,26.4,29.80,North,11,3.5,3.5,83,0.00,OVC,FEW,0.01,98.0,WeatherDisplay:10.37,2013-03-24 20:10:00,
2013-03-24 16:15:00,30.6,26.1,29.80,West,261,3.5,3.5,83,0.00,OVC,FEW,0.01,84.0,WeatherDisplay:10.37,2013-03-24 20:15:00,
2013-03-24 16:20:00,30.3,26.0,29.81,WSW,239,3.5,3.5,84,0.00,OVC,FEW,0.01,90.0,WeatherDisplay:10.37,2013-03-24 20:20:00,
2013-03-24 16:25:00,30.1,25.8,29.80,WNW,292,2.0,2.0,84,0.00,OVC,FEW,0.01,162.0,WeatherDisplay:10.37,2013-03-24 20:25:00,
2013-03-24 16:30:00,30.2,25.9,29.81,North,355,1.2,1.2,84,0.00,OVC,FEW,0.01,132.0,WeatherDisplay:10.37,2013-03-24 20:30:00,
2013-03-24 16:35:00,30.2,25.9,29.81,South,170,0.0,0.0,84,0.00,OVC,FEW,0.01,79.0,WeatherDisplay:10.37,2013-03-24 20:35:00,
2013-03-24 16:40:00,30.3,26.0,29.81,SSW,202,3.5,3.5,84,0.00,OVC,FEW,0.01,60.0,WeatherDisplay:10.37,2013-03-24 20:40:00,
2013-03-24 16:45:00,30.1,25.6,29.81,NW,309,1.2,0.0,83,0.00,OVC,FEW,0.01,67.0,WeatherDisplay:10.37,2013-03-24 20:45:00,
2013-03-24 16:50:00,30.0,25.5,29.81,NW,311,3.5,3.5,83,0.00,OVC,FEW,0.01,90.0,WeatherDisplay:10.37,2013-03-24 20:50:00,
2013-03-24 16:55:00,29.9,25.4,29.81,SSW,200,2.0,2.0,83,0.00,OVC,FEW,0.01,134.0,WeatherDisplay:10.37,2013-03-24 20:55:00,
2013-03-24 17:00:00,30.0,25.8,29.81,NNE,30,3.5,3.5,84,0.00,OVC,FEW,0.01,144.0,WeatherDisplay:10.37,2013-03-24 21:00:00,
2013-03-24 17:05:00,30.1,25.3,29.81,WNW,296,3.5,3.5,82,0.00,OVC,FEW,0.01,127.0,WeatherDisplay:10.37,2013-03-24 21:05:00,
2013-03-24 17:10:00,30.2,25.7,29.81,NE,48,1.2,0.0,83,0.00,OVC,FEW,0.01,116.0,WeatherDisplay:10.37,2013-03-24 21:10:00,
2013-03-24 17:15:00,30.3,25.8,29.81,NE,48,0.0,0.0,83,0.00,OVC,FEW,0.01,127.0,WeatherDisplay:10.37,2013-03-24 21:15:00,
2013-03-24 17:20:00,30.4,26.1,29.81,NE,48,0.0,0.0,84,0.00,OVC,FEW,0.01,81.0,WeatherDisplay:10.37,2013-03-24 21:20:00,
2013-03-24 17:25:00,30.5,26.2,29.80,NE,48,0.0,0.0,84,0.01,RA,FEW,0.02,81.0,WeatherDisplay:10.37,2013-03-24 21:25:00,
2013-03-24 17:30:00,30.4,25.9,29.80,WNW,283,3.5,3.5,83,0.01,RA,FEW,0.02,77.0,WeatherDisplay:10.37,2013-03-24 21:30:00,
2013-03-24 17:35:00,30.2,25.9,29.80,NW,311,4.0,4.0,84,0.02,RA,FEW,0.03,70.0,WeatherDisplay:10.37,2013-03-24 21:35:00,
2013-03-24 17:40:00,30.1,25.8,29.80,NNW,345,3.0,3.0,84,0.02,RA,FEW,0.03,67.0,WeatherDisplay:10.37,2013-03-24 21:40:00,
2013-03-24 17:45:00,29.9,25.7,29.80,NNW,346,1.2,0.0,84,0.02,OVC,FEW,0.03,65.0,WeatherDisplay:10.37,2013-03-24 21:45:00,
2013-03-24 17:50:00,29.8,25.8,29.81,NNW,346,1.0,1.0,85,0.03,RA,FEW,0.04,65.0,WeatherDisplay:10.37,2013-03-24 21:50:00,
2013-03-24 17:55:00,29.7,25.5,29.81,North,351,3.5,0.0,84,0.03,RA,FEW,0.04,74.0,WeatherDisplay:10.37,2013-03-24 21:55:00,
2013-03-24 18:00:00,29.6,25.4,29.81,WNW,289,3.5,3.5,84,0.04,RA,FEW,0.05,76.0,WeatherDisplay:10.37,2013-03-24 22:00:00,
2013-03-24 18:05:00,29.5,25.3,29.81,WSW,246,1.2,1.2,84,0.04,RA,FEW,0.05,60.0,WeatherDisplay:10.37,2013-03-24 22:05:00,
2013-03-24 18:10:00,29.5,25.3,29.81,WSW,252,3.0,3.0,84,0.04,OVC,FEW,0.05,60.0,WeatherDisplay:10.37,2013-03-24 22:10:00,
2013-03-24 18:15:00,29.5,25.5,29.81,NW,319,6.0,6.0,85,0.04,OVC,FEW,0.05,58.0,WeatherDisplay:10.37,2013-03-24 22:15:00,
2013-03-24 18:20:00,29.3,25.4,29.81,NW,321,2.3,2.3,85,0.04,OVC,FEW,0.05,33.0,WeatherDisplay:10.37,2013-03-24 22:20:00,
2013-03-24 18:25:00,29.2,25.5,29.81,NW,321,0.0,0.0,86,0.04,RA,FEW,0.06,28.0,WeatherDisplay:10.37,2013-03-24 22:25:00,
2013-03-24 18:30:00,29.1,25.2,29.81,NW,309,3.5,3.5,85,0.04,RA,FEW,0.06,23.0,WeatherDisplay:10.37,2013-03-24 22:30:00,
2013-03-24 18:35:00,29.0,25.3,29.81,NW,309,0.0,0.0,86,0.03,OVC,FEW,0.06,16.0,WeatherDisplay:10.37,2013-03-24 22:35:00,
2013-03-24 18:40:00,28.9,25.2,29.81,NW,309,1.2,1.2,86,0.03,OVC,FEW,0.06,12.0,WeatherDisplay:10.37,2013-03-24 22:40:00,
2013-03-24 18:45:00,28.8,25.4,29.81,NW,309,0.0,0.0,87,0.03,OVC,FEW,0.06,12.0,WeatherDisplay:10.37,2013-03-24 22:45:00,
2013-03-24 18:50:00,28.7,25.3,29.81,NW,309,0.0,0.0,87,0.02,OVC,FEW,0.06,9.0,WeatherDisplay:10.37,2013-03-24 22:50:00,
2013-03-24 18:55:00,28.6,25.2,29.81,NW,309,0.0,0.0,87,0.02,OVC,FEW,0.06,5.0,WeatherDisplay:10.37,2013-03-24 22:55:00,
2013-03-24 19:00:00,28.5,25.4,29.81,NW,309,0.0,0.0,88,0.01,OVC,FEW,0.06,5.0,WeatherDisplay:10.37,2013-03-24 23:00:00,
2013-03-24 19:05:00,28.4,25.3,29.82,NW,309,0.0,0.0,88,0.01,OVC,FEW,0.06,0.0,WeatherDisplay:10.37,2013-03-24 23:05:00,
2013-03-24 19:10:00,28.3,24.9,29.82,NW,309,0.0,0.0,87,0.01,OVC,FEW,0.06,0.0,WeatherDisplay:10.37,2013-03-24 23:10:00,
2013-03-24 19:15:00,28.2,24.8,29.81,NW,309,1.2,1.2,87,0.01,OVC,FEW,0.06,0.0,WeatherDisplay:10.37,2013-03-24 23:15:00,
2013-03-24 19:20:00,27.8,24.4,29.81,NW,308,2.3,2.3,87,0.01,OVC,FEW,0.06,0.0,WeatherDisplay:10.37,2013-03-24 23:20:00,
2013-03-24 19:25:00,27.5,24.4,29.81,NW,308,1.2,0.0,88,0.00,OVC,FEW,0.06,0.0,WeatherDisplay:10.37,2013-03-24 23:25:00,
2013-03-24 19:30:00,27.2,24.1,29.81,NW,313,1.0,0.0,88,0.00,OVC,FEW,0.06,0.0,WeatherDisplay:10.37,2013-03-24 23:30:00,
2013-03-24 19:35:00,27.0,23.6,29.81,West,273,0.0,0.0,87,0.00,OVC,FEW,0.06,0.0,WeatherDisplay:10.37,2013-03-24 23:35:00,
2013-03-24 19:40:00,26.8,23.4,29.81,North,355,0.0,0.0,87,0.00,OVC,FEW,0.06,0.0,WeatherDisplay:10.37,2013-03-24 23:40:00,
2013-03-24 19:45:00,26.7,23.4,29.81,North,355,0.0,0.0,87,0.00,OVC,FEW,0.06,0.0,WeatherDisplay:10.37,2013-03-24 23:45:00,
2013-03-24 19:50:00,26.6,23.5,29.81,North,355,1.2,0.0,88,0.00,OVC,FEW,0.06,0.0,WeatherDisplay:10.37,2013-03-24 23:50:00,
2013-03-24 19:55:00,26.6,23.5,29.81,North,355,0.0,0.0,88,0.00,OVC,FEW,0.06,0.0,WeatherDisplay:10.37,2013-03-24 23:55:00,
2013-03-24 20:00:00,26.5,23.4,29.81,North,355,0.0,0.0,88,0.00,OVC,FEW,0.06,0.0,WeatherDisplay:10.37,2013-03-25 00:00:00,
2013-03-24 20:05:00,26.2,23.1,29.82,North,355,0.0,0.0,88,0.00,OVC,FEW,0.06,0.0,WeatherDisplay:10.37,2013-03-25 00:05:00,
2013-03-24 20:10:00,26.2,23.1,29.82,North,355,0.0,0.0,88,0.00,OVC,FEW,0.06,0.0,WeatherDisplay:10.37,2013-03-25 00:10:00,
2013-03-24 20:15:00,26.1,23.0,29.82,North,355,0.0,0.0,88,0.00,OVC,FEW,0.06,0.0,WeatherDisplay:10.37,2013-03-25 00:15:00,
2013-03-24 20:20:00,26.1,23.3,29.82,North,355,0.0,0.0,89,0.00,OVC,FEW,0.06,0.0,WeatherDisplay:10.37,2013-03-25 00:20:00,
2013-03-24 20:25:00,26.1,23.0,29.83,North,355,0.0,0.0,88,0.00,OVC,FEW,0.06,0.0,WeatherDisplay:10.37,2013-03-25 00:25:00,
2013-03-24 20:30:00,26.2,23.1,29.83,North,355,0.0,0.0,88,0.00,OVC,FEW,0.06,0.0,WeatherDisplay:10.37,2013-03-25 00:30:00,
2013-03-24 20:35:00,26.2,23.1,29.83,North,355,0.0,0.0,88,0.00,OVC,FEW,0.06,0.0,WeatherDisplay:10.37,2013-03-25 00:35:00,
2013-03-24 20:40:00,26.3,23.5,29.83,North,355,0.0,0.0,89,0.00,OVC,FEW,0.06,0.0,WeatherDisplay:10.37,2013-03-25 00:40:00,
2013-03-24 20:45:00,26.3,23.2,29.83,North,355,0.0,0.0,88,0.00,OVC,FEW,0.06,0.0,WeatherDisplay:10.37,2013-03-25 00:45:00,
2013-03-24 20:50:00,26.2,23.4,29.83,North,355,0.0,0.0,89,0.00,OVC,FEW,0.06,0.0,WeatherDisplay:10.37,2013-03-25 00:50:00,
2013-03-24 20:55:00,26.3,23.2,29.83,North,355,0.0,0.0,88,0.00,OVC,FEW,0.06,0.0,WeatherDisplay:10.37,2013-03-25 00:55:00,
2013-03-24 21:00:00,26.3,23.2,29.82,North,355,0.0,0.0,88,0.00,OVC,FEW,0.06,0.0,WeatherDisplay:10.37,2013-03-25 01:00:00,
2013-03-24 21:05:00,26.2,23.4,29.82,North,355,0.0,0.0,89,0.00,FEW,,0.06,0.0,WeatherDisplay:10.37,2013-03-25 01:05:00,
2013-03-24 21:10:00,26.0,23.2,29.82,North,355,0.0,0.0,89,0.00,FEW,,0.06,0.0,WeatherDisplay:10.37,2013-03-25 01:10:00,
2013-03-24 21:15:00,25.8,22.7,29.82,North,355,0.0,0.0,88,0.00,FEW,,0.06,0.0,WeatherDisplay:10.37,2013-03-25 01:15:00,
2013-03-24 21:20:00,25.7,22.9,29.82,North,355,0.0,0.0,89,0.00,FEW,,0.06,0.0,WeatherDisplay:10.37,2013-03-25 01:20:00,
2013-03-24 21:25:00,25.6,22.5,29.82,North,355,0.0,0.0,88,0.00,FEW,,0.06,0.0,WeatherDisplay:10.37,2013-03-25 01:25:00,
2013-03-24 21:30:00,25.5,22.7,29.82,North,355,0.0,0.0,89,0.00,FEW,,0.06,0.0,WeatherDisplay:10.37,2013-03-25 01:30:00,
2013-03-24 21:35:00,25.3,22.5,29.82,North,355,0.0,0.0,89,0.00,FEW,,0.06,0.0,WeatherDisplay:10.37,2013-03-25 01:35:00,
2013-03-24 21:40:00,25.2,22.4,29.82,North,355,0.0,0.0,89,0.00,FEW,,0.06,0.0,WeatherDisplay:10.37,2013-03-25 01:40:00,
2013-03-24 21:45:00,25.0,22.2,29.82,North,355,0.0,0.0,89,0.00,FEW,,0.06,0.0,WeatherDisplay:10.37,2013-03-25 01:45:00,
2013-03-24 21:50:00,24.9,22.1,29.81,North,355,1.2,0.0,89,0.00,FEW,,0.06,0.0,WeatherDisplay:10.37,2013-03-25 01:50:00,
2013-03-24 21:55:00,24.7,21.9,29.81,North,355,0.0,0.0,89,0.00,FEW,,0.06,0.0,WeatherDisplay:10.37,2013-03-25 01:55:00,
2013-03-24 22:00:00,24.6,21.8,29.81,North,355,0.0,0.0,89,0.00,FEW,,0.06,0.0,WeatherDisplay:10.37,2013-03-25 02:00:00,
2013-03-24 22:05:00,24.4,21.6,29.81,North,355,1.2,0.0,89,0.00,BKN,FEW,0.06,0.0,WeatherDisplay:10.37,2013-03-25 02:05:00,
2013-03-24 22:10:00,24.1,21.6,29.81,North,355,0.0,0.0,90,0.00,BKN,FEW,0.06,0.0,WeatherDisplay:10.37,2013-03-25 02:10:00,
2013-03-24 22:15:00,23.9,21.4,29.81,North,355,0.0,0.0,90,0.00,BKN,FEW,0.06,0.0,WeatherDisplay:10.37,2013-03-25 02:15:00,
2013-03-24 22:20:00,23.7,21.5,29.81,North,355,1.2,0.0,91,0.00,BKN,FEW,0.06,0.0,WeatherDisplay:10.37,2013-03-25 02:20:00,
2013-03-24 22:25:00,23.6,21.4,29.81,North,355,0.0,0.0,91,0.00,BKN,FEW,0.06,0.0,WeatherDisplay:10.37,2013-03-25 02:25:00,
2013-03-24 22:30:00,23.5,21.3,29.80,North,355,1.0,1.0,91,0.00,BKN,FEW,0.06,0.0,WeatherDisplay:10.37,2013-03-25 02:30:00,
2013-03-24 22:35:00,23.5,21.3,29.80,North,355,0.0,0.0,91,0.00,BKN,FEW,0.06,0.0,WeatherDisplay:10.37,2013-03-25 02:35:00,
2013-03-24 22:40:00,23.5,21.3,29.80,North,355,0.0,0.0,91,0.00,BKN,FEW,0.06,0.0,WeatherDisplay:10.37,2013-03-25 02:40:00,
2013-03-24 22:45:00,23.4,21.2,29.80,North,355,0.0,0.0,91,0.00,BKN,FEW,0.06,0.0,WeatherDisplay:10.37,2013-03-25 02:45:00,
2013-03-24 22:50:00,23.3,21.1,29.80,North,355,0.0,0.0,91,0.00,BKN,FEW,0.06,0.0,WeatherDisplay:10.37,2013-03-25 02:50:00,
2013-03-24 22:55:00,23.2,21.0,29.80,North,355,0.0,0.0,91,0.00,BKN,FEW,0.06,0.0,WeatherDisplay:10.37,2013-03-25 02:55:00,
2013-03-24 23:00:00,23.0,20.8,29.80,North,355,0.0,0.0,91,0.00,BKN,FEW,0.06,0.0,WeatherDisplay:10.37,2013-03-25 03:00:00,
2013-03-24 23:05:00,22.8,20.8,29.80,North,355,0.0,0.0,92,0.00,FEW,,0.06,0.0,WeatherDisplay:10.37,2013-03-25 03:05:00,
2013-03-24 23:10:00,22.8,20.8,29.80,North,355,1.2,1.2,92,0.00,FEW,,0.06,0.0,WeatherDisplay:10.37,2013-03-25 03:10:00,
2013-03-24 23:15:00,22.7,20.7,29.80,North,355,1.2,0.0,92,0.00,FEW,,0.06,0.0,WeatherDisplay:10.37,2013-03-25 03:15:00,
2013-03-24 23:20:00,22.5,20.5,29.81,North,355,0.0,0.0,92,0.00,FEW,,0.06,0.0,WeatherDisplay:10.37,2013-03-25 03:20:00,
2013-03-24 23:25:00,22.4,20.4,29.81,NNW,339,0.0,0.0,92,0.00,FEW,,0.06,0.0,WeatherDisplay:10.37,2013-03-25 03:25:00,
2013-03-24 23:30:00,22.3,20.3,29.81,NNW,339,0.0,0.0,92,0.00,FEW,,0.06,0.0,WeatherDisplay:10.37,2013-03-25 03:30:00,
2013-03-24 23:35:00,22.4,20.7,29.81,NNW,339,1.0,1.0,93,0.00,FEW,,0.06,0.0,WeatherDisplay:10.37,2013-03-25 03:35:00,
2013-03-24 23:40:00,22.6,20.9,29.81,NNW,339,0.0,0.0,93,0.00,FEW,,0.06,0.0,WeatherDisplay:10.37,2013-03-25 03:40:00,
2013-03-24 23:45:00,22.6,20.9,29.81,NNW,339,0.0,0.0,93,0.00,FEW,,0.06,0.0,WeatherDisplay:10.37,2013-03-25 03:45:00,
2013-03-24 23:50:00,22.6,20.9,29.81,NNW,339,0.0,0.0,93,0.00,FEW,,0.06,0.0,WeatherDisplay:10.37,2013-03-25 03:50:00,
2013-03-24 23:55:00,22.8,21.1,29.80,NNW,339,0.0,0.0,93,0.00,FEW,,0.06,0.0,WeatherDisplay:10.37,2013-03-25 03:55:00,